User: anonymous   Login
Location: Unspecified
(0.0000°N, 0.0000°E)
Time: 20:29:50
(UTC+00:00)
Language:

UFO F7 - Orbit

View from above orbital plane
View from above orbital plane
View from above satellite
View from above satellite

Ground track
Ground track

The orbit data is extracted from the following two-line orbital elements,

1 23967U 96042A   21136.23038103 -.00000186  00000-0  00000-0 0  9997
2 23967   9.4900  25.1771 0010994  48.3501 219.8801  1.00283657 90851
Epoch (UTC): 16 May 2021 05:31:44
Eccentricity: 0.0010994
inclination: 9.4900°
perigee height: 35736 km
apogee height: 35829 km
right ascension of ascending node: 25.1771°
argument of perigee: 48.3501°
revolutions per day: 1.00283657
mean anomaly at epoch: 219.8801°
orbit number at epoch: 9085

The dashed part of the orbit path shows where the satellite is in the earth's shadow,  

DLR